JILIN-01 KUANFU 02B 2

导读 | 豆包AI

JILIN-01 KUANFU 02B 2(吉林一号宽幅02B 02星)是中国自主研发的新一代光学遥感卫星,隶属于“吉林一号”卫星星座,于2024年9月20日发射。该卫星属于宽幅02B系列,实现多项技术突破,具备150km幅宽、0.5m分辨率的成像能力,具备批产、大幅宽、高分辨、低成本等优势,可服务于国土资源普查、智慧城市建设等领域,将加速“吉林一号”组网进程,提升我国遥感信息获取能力。

基本信息
目录编号:
61190
目录名称:
JILIN-01 KUANFU 02B 2
国际标识:
2024-169B
轨道中心:
EARTH
卫星名称:
JILIN-01 KUANFU 02B 2
卫星全名:
JILIN-01 KUANFU 02B 2
卫星状态:
在轨 (已飞行540 天)
发射日期:
2024-09-20 UTC
国别 :
中国 (CN)
星等 :
--
轨道信息
数据来源 国际轨道数据
星历时间: 2026-03-14T06:59:02+0800
5小时前
查看轨道信息
半长轴: 6916.53km
偏心率: 0.001129
轨道倾角: 97.556°
近地点辐角 1.993°
升交点赤经 163.277°
平近点角 358.135°
近地点: 530.584km
远地点: 546.202km
周期: 95.410分钟
每日圈数: 15.09282
详细信息
使用方式:
暂无
2D轨道图
3D轨道图
轨道高度分析图
轨道倾角分析图
轨道综合分析图
查看轨道综合分析图